Simultaneous Nadir Overpasses (SNOs) Predictions

Prediction of SNOs between METOP-B and TERRA Satellite Orbit:

Table of predicted SNOs for the next 14.0 days since TLE Epoch: 2/3/2018
Index Date (METOP-B) Time (METOP-B) Lat,Lon (METOP-B) SZA (METOP-B ) Date (TERRA) Time (TERRA) Lat,Lon (TERRA) SZA (TERRA ) Distance(km) Time Diff (sec)
1 02/03/2018 21:05:21 -81.32, 91.21 80.02 02/03/2018 21:06:07 -81.33, 91.31 79.98 1.84 46
2 02/03/2018 21:56:00 81.33,-100.86 100.04 02/03/2018 21:55:33 81.34,-100.92 100.03 1.31 27
3 02/06/2018 16:39:42 -81.32, 157.64 80.87 02/06/2018 16:40:22 -81.32, 157.63 80.86 0.29 40
4 02/06/2018 17:30:22 81.32, -34.83 99.15 02/06/2018 17:29:48 81.33, -34.64 99.15 3.09 34
5 02/09/2018 12:14:04 -81.32,-135.94 81.76 02/09/2018 12:14:38 -81.32,-136.03 81.76 1.56 34
6 02/09/2018 13:04:44 81.32, 31.59 98.26 02/09/2018 13:04:04 81.32, 31.67 98.25 1.41 40
7 02/12/2018 07:48:26 -81.32, -69.55 82.68 02/12/2018 07:48:54 -81.31, -69.66 82.68 2.14 28
8 02/12/2018 08:39:05 81.33, 98.38 97.38 02/12/2018 08:38:19 81.34, 98.39 97.37 0.76 46
9 02/15/2018 03:22:46 -81.33, -2.77 83.58 02/15/2018 03:23:08 -81.33, -2.89 83.58 2.01 22




NCC Satellite Simultaneous Nadir Overpasses (SNOs) Prediction Service
